sat.trackr.live / text

‹ back to catalog

SBIRS GEO-2 (USA 241)

NORAD 39120 · 2013-011A

PAYLOAD ACTIVE UNKNOWN

§ Identity

Operator
Country
US
Launch date
2013-03-19
Launch site
AFETR
Launch vehicle
Mass (kg)
RCS (m²)
13.59

Purposes: comms

External: N2YO · Heavens-Above · Gunter

§ Orbital elements

Epoch: 2026-09-14T21:53:49.693344Z

Period
1,436.11 min
Inclination
4.6806°
Eccentricity
0.0002439
Mean motion
1.00270877 rev/d
Perigee alt
35,776.6 km
Apogee alt
35,797.1 km
Semi-major
42,165.0 km
B*
0.0000e+0
RAAN
52.4474°
Arg perigee
139.6350°
Mean anomaly
33.4887°
Rev number
4,943

§ Raw data

SBIRS GEO-2 (USA 241)1 39120U 13011A   26257.91238071 -.00000151  00000+0  00000+0 0  99902 39120   4.6806  52.4474 0002439 139.6350  33.4887  1.00270877 49437

JSON: /api/v1/satellites/39120 · /tle

For live sub-satellite position, see the globe view (requires WebGL).

§ Visibility from observer

Set your observer location to see the next 7 days of passes ≥ 10°. The values pass through the URL so the page stays shareable.

No JS? Fill the form by hand. The geolocation button needs JavaScript.